Regional Weather Roundup
Issued by NWS

Home | Current Version | Previous Version | Graphics & Text | Print | Product List | Glossary On
Versions: 1 2 3 4 5 6 7 8 9 10 11 12 13 14 15 16 17 18 19 20 21 22 23 24 25 26 27 28 29 30 31 32 33 34 35 36 37 38 39 40 41 42 43 44 45 46 47 48 49 50
000
ASUS43 KLSX 300807
RWRMO

WEATHER SUMMARY FOR MISSOURI
NATIONAL WEATHER SERVICE SPRINGFIELD MO
200 AM CST FRI JAN 30 2015

NOTE: "FAIR" INDICATES FEW OR NO CLOUDS BELOW 12,000 FEET WITH NO
       SIGNIFICANT WEATHER AND/OR OBSTRUCTIONS TO VISIBILITY.
       CURRENT SKY AND/OR WEATHER CONDITIONS ARE NOT AVAILABLE FOR
       CHILLICOTHE AND FARMINGTON.

MOZ001>031-035>038-043-044-053-054-300900-
...NORTHERN AND WESTERN MISSOURI...

CITY           SKY/WX    TMP DP  RH WIND       PRES   REMARKS
KANSAS CTY INT CLEAR     25  21  85 NW7       30.52R WCI  17
KANSAS C DTWN  CLEAR     30  23  75 CALM      30.54R
LEE`S SUMMIT   CLEAR     26  20  77 CALM      30.53R
ST JOSEPH      CLEAR     19  18  95 CALM      30.55R
CHILLICOTHE      N/A     29  21  72 CALM      30.53S
KIRKSVILLE     CLEAR     25  21  85 N7        30.50S WCI  17

$$
MOZ066>068-077>081-088>096-101>105-300900-
...SOUTHWEST MISSOURI...

CITY           SKY/WX    TMP DP  RH WIND       PRES   REMARKS
SPRINGFIELD    CLEAR     24  20  84 N8        30.48S WCI  15
JOPLIN         CLEAR     27  24  89 N3        30.53S

$$
MOZ032>034-039>042-045>050-055>058-069>072-300900-
...CENTRAL MISSOURI...

CITY           SKY/WX    TMP DP  RH WIND       PRES   REMARKS
COLUMBIA       CLEAR     27  21  78 N10       30.49S WCI  17
JEFFERSON CITY CLEAR     30  21  69 NW6       30.51S WCI  24
ROLLA          CLEAR     29  21  72 NW10      30.45R WCI  20
SEDALIA        CLEAR     28  22  78 NW5       30.52R WCI  23
WHITEMAN AFB   CLEAR     26  21  82 NW3       30.51S
WARRENSBURG    CLEAR     28  23  80 CALM      30.53R
OSAGE BEACH    CLEAR     30  19  64 N3        30.50S

$$
MOZ051-052-059>065-300900-
...EAST CENTRAL MISSOURI...

CITY           SKY/WX    TMP DP  RH WIND       PRES   REMARKS
ST LOUIS INTL  MOCLDY    34  21  60 NW13      30.47R WCI  25
SPIRIT OF STL  MOCLDY    31  21  66 NW10      30.48R WCI  22
ST CHARLES     CLOUDY    33  23  66 NW17      30.48R WCI  22

$$
MOZ072>076-082>087-097>100-106>115-300900-
...SOUTH CENTRAL AND SOUTHEAST MISSOURI...

CITY           SKY/WX    TMP DP  RH WIND       PRES   REMARKS
CAPE GIRARDEAU CLOUDY    37  25  61 N20G29    30.44R WCI  27
FARMINGTON     CLOUDY    34  21  60 NW8       30.46S WCI  27
POPLAR BLUFF   PTCLDY    34  25  69 N8        30.45R WCI  27
WEST PLAINS    CLEAR     31  23  72 N6        30.45R WCI  25

$$



USA.gov is the U.S. government's official web portal to all federal, state and local government web resources and services.